Location: Morlupo
(42.1333°N, 12.5000°E)
Time: 10:43:02
(UTC+00:00)

HJ-1C - Visible Passes

Search period start: 17 January 2021 00:00
Search period end: 27 January 2021 00:00
Orbit: 430 x 441 km, 97.1° (Epoch: 17 January)

Date Brightness Start Highest point End Pass type
(mag) Time Alt. Az. Time Alt. Az. Time Alt. Az.
23 Jan 7.4 05:54:48 10° E 05:55:08 10° E 05:55:28 10° E visible
25 Jan 6.0 18:14:07 12° N 18:14:07 12° N 18:14:27 10° N visible
26 Jan 5.5 17:34:03 14° NNE 17:34:03 14° NNE 17:34:44 10° NNE visible
